FENGYUN 1C DEB, 40695

Orbit data source: Space-Track

FENGYUN 1C DEB, 40695 is space debris in SSO originally from a launch on Mon, 10 May 1999 UTC launched from the Taiyaun Space Center, China (TSC). Fengyun 1C debris stems from the Chinese weather satellite Fengyun-1C, which was intentionally destroyed by a Chinese anti-satellite missile in 2007. This event dramatically increased the amount of space debris, with thousands of trackable fragments posing hazards to satellites and human spaceflight. The Fengyun 1C debris cloud has become a focal point in discussions about space sustainability and the need for international regulations to prevent the creation of new debris.

Loading next visibility...
Identifier
40695, 1999-025EXB
Orbit
SSO
Country
Flag of CNCN / PRC
Related business
Manufacturer
Unknown
Mission
Spacecraft
Bus & Motor
Unknown
Mass
Unknown
Launch date (UTC)
1999-05-10 (27 years ago)
Launch vehicle
Unknown
Launch site
Taiyaun Space Center, China (TSC)
Object type
Payload
Rocket body
Debris
Shape & HBR
Unknown shape, 0.1 m
Radar Cross Section
Small (<0.1 m²)

Expand to show TLE details & history
Last TLE update: 1 week ago

TLE from 1 week ago
0 FENGYUN 1C DEB
1 40695U 99025EXB 26166.65200304  .00002130  00000-0  32867-3 0  9995
2 40695  99.4494 312.6232 0279361 143.7078 218.3424 14.51746132345484
Epoch: 2026-06-15T15:38Z
TLE epoch observation values (Epoch: 2026-06-15T15:38:53.062Z)
Latitude
-0.00007°
Longitude
173.9668°
Altitude
880.509 km
Speed
7.329 km/s
True Right ascension
20h 50m 29s
True Declination
0° 00' 00"
Sunlit
Object was in full shadow at epoch
Visualization orbit readout
Latitude
Unknown
Longitude
Unknown
Altitude
Unknown
Speed
Unknown
Apparent Right ascension
Unknown
Apparent Declination
Unknown
Sunlit
N/A
Visualization observer readout
Local Sidereal Time
21:43:13
Azimuth
Unknown
Elevation
Unknown
Doppler factor
Unknown
Orbital elements
Apogee altitude
915.315 km
Perigee altitude
518.888 km
Semi-major axis
7,095.239 km
Eccentricity
0.02794
Inclination
99.4494°
RAAN
312.6232°
Arg. of periapsis
143.7078°
True anomaly
216.40984°
Mean anomaly
218.3424°
Eccentric anomaly
217.37087°
Mean motion
3.63156 °/min
Orbital period
99.13 mins
BSTAR
0.00032867
Loading maneuver chart data...
Computing Atmospheric mass density...
Loading historical data...
Loading historical data...
Loading historical data...
Loading historical data...
Loading historical data...
Loading historical data...
Loading historical data...

Documentation

Showing up to 5 results
|